TimeEST,TemperatureF,Dew PointF,Humidity,Sea Level PressureIn,VisibilityMPH,Wind Direction,Wind SpeedMPH,Gust SpeedMPH,PrecipitationIn,Events,Conditions,WindDirDegrees,DateUTC
12:54 AM,37.0,27.0,67,30.41,10.0,West,11.5,-,N/A,,Mostly Cloudy,260,2013-01-10 05:54:00
1:54 AM,36.0,27.0,70,30.42,10.0,WSW,8.1,-,N/A,,Mostly Cloudy,240,2013-01-10 06:54:00
2:54 AM,35.1,27.0,72,30.46,10.0,WSW,5.8,-,N/A,,Mostly Cloudy,250,2013-01-10 07:54:00
3:54 AM,35.1,27.0,72,30.48,10.0,West,9.2,-,N/A,,Mostly Cloudy,260,2013-01-10 08:54:00
4:54 AM,35.1,27.0,72,30.48,10.0,West,8.1,-,N/A,,Mostly Cloudy,260,2013-01-10 09:54:00
5:54 AM,35.1,27.0,72,30.51,10.0,West,10.4,-,N/A,,Mostly Cloudy,260,2013-01-10 10:54:00
6:54 AM,34.0,27.0,75,30.54,10.0,West,6.9,-,N/A,,Mostly Cloudy,270,2013-01-10 11:54:00
7:54 AM,33.1,26.1,75,30.58,10.0,West,5.8,-,N/A,,Mostly Cloudy,260,2013-01-10 12:54:00
8:54 AM,35.1,27.0,72,30.61,10.0,West,5.8,-,N/A,,Mostly Cloudy,280,2013-01-10 13:54:00
9:54 AM,37.0,26.1,65,30.61,10.0,WNW,3.5,-,N/A,,Scattered Clouds,290,2013-01-10 14:54:00
10:54 AM,39.0,25.0,57,30.59,10.0,Variable,4.6,-,N/A,,Scattered Clouds,0,2013-01-10 15:54:00
11:54 AM,39.9,25.0,55,30.57,10.0,Variable,3.5,-,N/A,,Mostly Cloudy,0,2013-01-10 16:54:00
12:54 PM,39.9,26.1,58,30.55,10.0,SSW,8.1,-,N/A,,Scattered Clouds,210,2013-01-10 17:54:00
1:54 PM,39.9,27.0,60,30.55,10.0,SW,6.9,-,N/A,,Mostly Cloudy,220,2013-01-10 18:54:00
2:54 PM,39.9,26.1,58,30.55,10.0,SW,6.9,-,N/A,,Mostly Cloudy,220,2013-01-10 19:54:00
3:54 PM,37.9,26.1,62,30.54,10.0,SSW,4.6,-,N/A,,Mostly Cloudy,210,2013-01-10 20:54:00
4:54 PM,36.0,25.0,64,30.53,10.0,West,3.5,-,N/A,,Mostly Cloudy,270,2013-01-10 21:54:00
5:54 PM,37.0,25.0,62,30.53,10.0,Calm,Calm,-,N/A,,Mostly Cloudy,0,2013-01-10 22:54:00
6:54 PM,35.1,26.1,70,30.53,10.0,East,4.6,-,N/A,,Mostly Cloudy,100,2013-01-10 23:54:00
7:54 PM,35.1,27.0,72,30.51,10.0,East,3.5,-,N/A,,Overcast,100,2013-01-11 00:54:00
8:54 PM,34.0,26.1,73,30.49,10.0,East,6.9,-,N/A,,Overcast,80,2013-01-11 01:54:00
9:54 PM,34.0,26.1,73,30.47,10.0,East,5.8,-,N/A,,Overcast,100,2013-01-11 02:54:00
10:54 PM,35.1,26.1,70,30.43,10.0,East,6.9,-,N/A,,Overcast,90,2013-01-11 03:54:00
11:54 PM,35.1,26.1,70,30.39,10.0,ENE,6.9,-,N/A,,Overcast,70,2013-01-11 04:54:00